Location: Boncourt
(49.6160°N, 3.9448°E)
Time: 18:39:12
(UTC+00:00)

Cosmos 2369 Rocket - Pass Details

Date: 09 February 2023
Orbit: 829 x 852 km, 71.0° (Epoch: 25 March)

Event Time Altitude Azimuth Distance (km) Brightness Sun altitude
Rises 20:23:41 0° 332° (NNW) 3,383 5.9 -34.2°
Reaches altitude 10° 20:26:09 10° 335° (NNW) 2,447 5.1 -34.6°
Enters shadow 20:28:37 27° 342° (NNW) 1,563 3.8 -35.0°
